EHI
0 0 0 0 0 0 0 0 0 0 0 0 0 0 0 0 0 0 0 0 0 0 0 0 0 0 0 0 0 0 0 0 0 0 0 0 0 0 0 0 0 0 0 0
0 0 0 0 0 0 0 0 0 0 0 0 0 0 0 0 0 0 0 0 0 0 0 0 0 0 0 0 0 0 0 0 0 0 0 0 0 0 0 0 0 0 0 0
0 0 0 0 0 0 0 0 0 0 0 0 0 0 0 0 0 0 0 0 0 0 0 0 0 0 0 0 0 0 0 0 0 0 0 0 0 0 0 0 0 0 0 0
0 0 0 0 0 0 0 0 0 0 0 0 0 0 0 0 0 0 0 0 0 0 1 0 0 0 0 0 0 0 0 0 0 0 0 0 0 0 0 0 0 0 0 0
0 0 0 0 0 0 0 0 0 0 0 0 0 0 0 0 0 0 0 0 0 0 0 0 0 0 0 0 0 0 0 0 0 0 0 0 0 0 0 0 0 0 0 0
0 0 0 0 0 0 0 0 0 0 0 0 0 0 0 0 0 0 0 0 0 0 0 0 0 0 0 0 0 0 0 0 0 0 0 0 0 0 0 0 0 0 0 0
0 0 0 0 0 0 0 0 0 0 0 0 0 0 0 0 0 0 0 0 0 0 0 0 0 0 0 0 0 0 0 0 0 0 0 0 0 0 0 0 0 0 0 0
0 0 0 0 0 0 0 0 0 0 0 0 0 0 0 0 0 0 0 0 0 0 0 0 0 0 0 0 0 0 0 0 0 0 0 0 0 0 0 0 0 0 0 0
0 0 0 0 0 0 0 0 0 0 0 0 0 0 0 0 0 0 0 0 0 0 0 0 0 0 0 0 0 0 0 0 0 0 0 0 0 0 0 0 0 0 0 0
0 0 0 0 0 0 0 0 0 0 0 0 0 0 0 0 0 0 0 0 0 0 0 0 0 0 0 0 0 0 0 0 0 0 0 0 0 0 0 0 0 0 0 0
0 0 0 0 0 0 0 0 0 0 0 0 0 0 0 0 0 0 0 0 0 0 0 0 0 0 0 0 0 0 0 0 0 0 0 0 0 0 0 0 0 0 0 0
0 0 0 0 0 0 0 0 0 0 0 0 0 0 0 0 0 0 0 0 0 0 0 0 0 0 0 0 0 0 0 0 0 0 0 0 0 0 0 0 0 0 0 0
0 0 0 0 0 0 0 0 0 0 0 0 0 0 0 0 0 0 0 0 0 0 0 0 0 0 0 0 0 0 0 0 0 0 0 0 0 0 0 0 0 0 0 0
0 0 0 0 0 0 0 0 0 0 0 0 0 0 0 0 0 0 0 0 0 0 0 0 0 0 0 0 0 0 0 0 0 0 0 0 0 0 0 0 0 0 0 0
0 0 0 0 0 0 0 0 0 0 0 0 0 0 0 0 0 0 0 0 0 0 0 0 0 0 0 0 0 0 0 0 0 0 0 0 0 0 0 0 0 0 0 0
0 0 0 0 0 0 0 0 0 0 0 0 0 0 0 0 0 0 0 0 0 0 0 0 0 0 0 0 0 0 0 0 0 0 0 0 0 0 0 0 0 0 0 0
0 0 0 0 0 0 0 0 0 0 0 0 0 0 0 0 0 0 0 0 0 0 0 0 0 0 0 0 0 0 0 0 0 0 0 0 0 0 0 0 0 0 0 0
0 0 0 0 0 0 0 0 0 0 0 0 0 0 0 0 0 0 0 0 0 0 0 0 0 0 0 0 0 0 0 0 0 0 0 0 0 0 0 0 0 0 0 0
0 0 0 0 0 0 0 0 0 0 0 0 0 0 0 0 0 0 0 0 0 0 0 0 0 0 0 0 0 0 0 0 0 0 0 0 0 0 0 0 0 0 0 0
0 0 0 0 0 0 0 0 0 0 0 0 0 0 0 0 0 0 0 0 0 0 0 0 0 0 0 0 0 0 0 0 0 0 0 0 0 0 0 0 0 0 0 0
0 0 0 0 0 0 0 0 0 0 0 0 0 0 0 0 0 0 0 0 0 0 0 0 0 0 0 0 0 0 0 0 0 0 0 0 0 0 0 0 0 0 0 0
0 0 0 0 0 0 0 0 0 0 0 0 0 0 0 0 0 0 0 0 0 0 0 0 0 0 0 0 0 0 0 0 0 0 0 0 0 0 0 0 0 0 0 0
0 0 0 0 0 0 0 0 0 0 0 0 0 0 0 0 0 0 0 0 0 0 0 0 0 0 0 0 0 0 0 0 0 0 0 0 0 0 0 0 0 0 0 0
0 0 0 0 0 0 0 0 0 0 0 0 0 0 0 0 0 0 0 0 0 0 0 0 0 0 0 0 0 0 0 0 0 0 0 0 0 0 0 0 0 0 0 0
0 0 0 0 0 0 0 0 0 0 0 0 0 0 0 0 0 0 0 0 0 0 0 0 0 0 0 0 0 0 0 0 0 0 0 0 0 0 0 0 0 0 0 0
0 0 0 0 0 0 0 0 0 0 0 0 0 0 0 0 0 0 0 0 0 0 0 0 0 0 0 0 0 0 0 0 0 0 0 0 0 0 0 0 0 0 0 0
Wind_Speed
3 5 3 4 3 3 4 2 1 3 2 1 4 7 9 4 4 6 6 7 7 8 5 4 5 6 6 5 5 5 4 3 2 1 1 1 1 1 1 1 2 2 2 2
4 1 4 3 3 3 3 1 1 3 1 1 3 7 7 4 5 6 7 8 8 6 4 5 5 6 6 7 6 5 5 4 3 2 2 1 1 1 1 2 2 2 2 2
4 3 4 4 3 2 0 2 2 1 3 3 3 7 5 4 2 2 4 5 6 9 8 7 7 7 6 7 8 7 6 5 4 3 2 1 1 2 2 2 2 2 3 3
1 2 4 3 2 3 2 3 2 0 2 3 3 3 7 5 5 2 2 4 6 7 7 7 7 7 8 8 6 6 6 5 4 4 2 2 2 1 2 2 2 3 3 3
1 3 4 3 3 5 3 1 2 2 2 2 3 1 8 5 5 5 4 4 5 6 7 8 9 9 8 7 6 6 5 5 4 4 4 3 2 2 1 1 2 3 3 3
0 1 3 3 1 3 3 5 5 5 4 3 3 1 6 4 4 6 5 4 5 5 6 6 6 5 5 5 5 5 5 5 4 4 4 4 4 3 2 2 2 2 2 3
4 3 1 2 2 3 4 5 5 7 5 3 3 0 7 6 5 5 6 6 4 4 5 6 7 7 7 7 7 6 6 5 5 5 5 5 4 4 4 3 2 2 2 2
3 3 2 1 3 3 2 6 6 3 2 4 4 2 7 5 6 4 3 3 2 2 4 6 7 7 7 8 7 7 7 6 5 5 5 4 4 3 3 3 3 3 2 3
4 2 2 1 2 6 4 2 4 6 2 2 5 6 8 6 8 8 7 6 5 4 4 5 5 6 7 8 8 9 8 7 6 6 5 4 4 3 3 3 3 2 3 3
5 1 2 1 4 4 4 7 5 5 4 1 5 4 4 8 8 8 7 7 6 6 5 4 3 4 5 6 6 6 7 7 6 6 5 4 4 4 3 2 3 3 3 2
2 3 3 3 2 1 3 4 5 5 5 5 0 5 3 4 5 5 6 6 5 5 5 4 3 2 2 3 4 5 5 5 5 6 5 4 4 4 3 3 3 3 2 2
2 5 1 3 3 1 2 4 6 4 2 3 3 5 4 3 4 4 6 7 6 5 4 4 3 2 1 2 3 4 5 6 6 6 5 5 4 3 3 4 3 3 2 2
3 5 4 6 6 5 4 3 3 5 5 4 4 5 4 6 7 6 6 7 7 6 6 6 5 3 3 2 3 4 5 6 5 5 5 5 4 5 5 5 4 3 3 2
5 5 5 5 5 2 1 1 3 4 4 3 4 4 8 9 9 9 9 8 7 6 6 6 5 4 4 3 3 3 5 5 5 5 6 6 7 6 6 5 4 3 3 2
5 3 1 2 1 1 0 1 1 3 4 5 3 1 5 6 6 7 7 8 10 10 9 8 6 5 5 4 4 3 4 4 5 6 7 8 7 6 5 5 4 4 3 3
5 3 2 2 2 2 2 3 2 2 1 2 2 1 4 4 4 7 8 9 10 10 10 9 8 7 6 5 5 4 4 3 4 6 8 7 5 6 6 6 5 4 4 3
2 3 3 2 3 3 2 2 2 3 2 3 2 2 4 5 6 6 7 8 9 9 10 10 9 7 6 6 5 5 4 3 3 5 6 6 6 6 7 6 5 5 5 4
3 4 3 1 2 1 3 1 4 6 4 2 1 1 3 3 2 2 5 7 9 10 10 10 10 9 7 6 5 4 3 2 3 4 5 5 6 7 6 6 7 7 5 5
3 5 4 3 1 2 2 0 1 2 1 3 2 4 5 5 3 3 6 6 6 7 7 7 7 7 7 7 6 5 4 3 3 4 5 6 6 7 7 8 8 7 6 6
4 4 5 4 3 4 4 3 2 3 1 2 2 3 5 4 4 5 8 7 7 7 7 7 8 7 8 7 6 5 5 4 5 6 6 6 6 7 8 9 8 6 6 7
3 4 3 3 3 5 3 4 2 3 4 2 1 2 2 1 3 6 8 7 7 7 7 7 7 7 7 7 5 5 5 6 7 7 6 5 6 7 8 7 6 6 6 6
3 3 3 4 3 6 2 2 3 3 1 0 1 2 2 3 4 5 7 7 8 8 7 7 7 7 7 6 5 6 7 8 7 6 6 6 6 6 6 6 6 6 7 7
3 5 5 6 5 2 0 2 1 2 1 1 1 2 2 3 5 6 6 7 7 7 7 7 7 8 8 6 5 7 9 8 8 7 7 7 6 6 5 5 6 5 6 6
2 1 2 1 3 2 1 1 0 1 1 1 1 2 2 3 5 6 7 7 7 7 7 7 7 8 9 8 7 7 8 8 7 8 8 7 6 6 5 5 5 5 6 7
4 2 2 2 3 1 2 2 1 0 1 1 2 2 2 3 5 6 6 7 7 7 7 6 7 8 9 9 8 8 8 8 8 8 8 7 6 6 5 6 6 7 8 9
5 6 6 6 6 5 5 4 2 2 2 2 2 3 3 3 5 6 6 7 7 8 7 7 8 8 9 9 9 8 7 7 8 8 8 6 5 5 5 5 5 7 8 10
Wind_Direction
101 90 155 195 184 155 139 142 248 262 266 225 255 273 283 268 228 225 216 212 218 227 222 189 179 164 155 159 165 173 171 169 146 124 124 123 280 303 319 309 312 320 320 324
72 127 204 153 137 116 121 146 270 300 327 235 296 288 286 259 228 218 213 213 214 214 200 190 177 173 175 176 179 181 185 180 180 173 169 181 199 255 268 294 313 318 322 319
144 193 159 136 132 113 173 202 233 286 349 22 346 329 324 323 302 247 214 209 208 205 203 197 189 189 184 188 190 190 193 191 187 167 120 78 44 11 352 330 314 316 319 314
129 155 141 138 171 151 253 234 197 119 44 341 25 326 307 320 326 308 242 213 214 214 204 198 195 195 198 200 191 190 190 190 187 171 164 166 174 216 248 265 283 305 313 314
150 154 150 175 213 172 209 67 100 85 106 21 19 50 298 337 335 313 282 246 228 216 205 205 203 204 202 191 185 188 186 192 188 181 181 179 192 221 262 288 297 309 315 315
79 176 172 191 180 144 125 70 60 52 66 39 340 51 296 299 284 299 296 267 240 221 212 213 208 198 195 185 183 182 187 200 192 188 190 191 199 213 249 285 294 304 310 310
18 356 322 148 89 54 74 77 36 18 22 293 308 225 261 275 277 267 278 279 260 225 210 208 203 199 196 192 191 187 190 204 197 193 202 204 207 206 220 242 254 275 294 299
76 331 283 187 163 149 125 125 138 150 221 296 344 304 271 289 308 315 316 313 309 258 231 224 215 207 203 201 195 190 196 205 196 198 209 209 210 207 223 232 232 242 253 267
144 267 299 205 158 128 123 113 149 124 119 14 324 317 319 349 1 2 2 359 333 303 271 248 233 216 209 204 200 196 197 202 200 202 203 207 211 212 224 235 233 242 254 265
146 123 337 338 76 41 108 139 98 96 111 19 327 330 309 330 338 348 353 345 331 328 315 291 261 236 221 211 206 197 197 202 202 198 201 203 209 215 220 226 240 251 262 269
106 111 352 35 79 167 101 84 95 97 132 137 300 294 260 278 307 323 324 322 320 324 323 317 304 279 244 219 203 202 204 204 202 202 202 204 209 213 214 223 237 243 254 263
93 106 46 302 297 276 135 141 139 131 169 143 149 265 294 310 317 331 332 335 338 334 333 337 340 347 318 243 223 214 210 209 210 203 200 207 208 205 211 226 237 235 245 257
113 97 63 355 347 3 56 87 110 116 112 139 152 257 333 2 3 359 351 345 351 360 2 1 2 356 329 293 255 235 222 218 212 199 199 208 209 207 216 225 229 229 234 249
103 97 146 182 219 263 343 57 131 122 134 177 210 254 335 350 355 351 352 351 357 5 6 4 353 338 321 304 279 255 242 223 208 200 203 210 213 212 216 220 219 220 220 226
77 100 155 223 256 109 27 356 107 149 172 170 211 187 322 333 336 339 349 1 12 7 1 352 341 332 327 325 311 287 267 240 213 203 211 220 218 212 212 216 217 216 216 223
48 102 69 11 40 74 51 8 50 88 103 128 95 358 320 329 356 7 7 11 8 357 351 345 338 334 329 320 314 302 288 263 220 214 222 224 216 212 213 215 212 210 218 224
39 100 95 285 313 34 11 357 93 93 47 118 135 262 318 346 7 8 4 8 359 347 343 342 335 324 313 307 301 294 286 284 237 230 232 224 215 218 220 215 208 211 215 212
130 105 115 102 41 225 234 15 116 110 74 54 84 315 321 306 298 18 25 8 353 347 344 339 336 330 321 313 312 305 303 296 258 244 243 232 219 223 221 211 214 217 209 206
144 131 114 112 131 283 293 103 150 150 96 14 11 344 337 324 348 359 10 358 339 331 328 325 324 325 328 330 327 325 317 306 292 266 254 242 225 225 220 217 220 215 205 209
63 85 107 119 153 231 245 295 302 123 199 327 357 344 344 14 13 314 335 336 330 332 333 334 334 338 342 337 336 331 320 310 291 281 268 259 235 226 226 224 221 212 206 212
48 55 103 141 195 256 273 308 56 137 246 283 314 330 349 348 244 282 316 326 328 329 330 335 339 340 332 329 334 326 319 301 289 291 282 266 248 238 234 228 219 208 205 205
169 148 166 144 183 247 310 63 127 206 226 242 325 326 322 301 304 315 322 325 330 333 334 335 337 333 330 330 329 320 308 301 304 298 285 271 257 247 243 226 220 209 200 201
195 188 183 184 203 224 11 142 168 153 155 260 298 314 323 321 320 322 324 325 325 326 328 328 327 326 328 326 322 309 305 312 313 307 293 280 271 254 243 227 219 208 202 205
281 144 136 237 247 228 215 161 75 113 166 244 290 309 325 316 316 321 322 323 322 320 320 321 325 325 322 320 311 302 306 311 310 305 300 290 278 267 251 238 224 213 207 210
241 180 161 247 262 276 264 242 232 201 57 359 331 318 306 309 312 312 315 314 313 312 309 312 313 310 310 312 308 308 313 315 311 306 301 296 281 268 255 242 234 227 223 212
214 189 181 217 216 194 232 232 205 198 247 260 285 308 309 305 304 311 311 308 308 309 308 308 306 305 306 309 307 306 307 310 310 309 306 297 288 278 262 252 263 254 247 239